Weather History for Hermosillo, Mexico

Change the Weather History Date:

Saturday, October 20, 2012

  Actual Average Record
Temperature  
Mean Temperature 82 °F -  
Max Temperature 95 °F 85 °F 102 °F (2003)
Min Temperature 69 °F 56 °F 55 °F (2013)
Cooling Degree Days 17    
Growing Degree Days 32 (Base 50)    
Moisture  
Dew Point 58 °F    
Average Humidity 48    
Maximum Humidity 83    
Minimum Humidity 21    
Precipitation  
Precipitation 0.00 in - - ()
Sea Level Pressure  
Sea Level Pressure 29.82 in    
Wind  
Wind Speed 2 mph ()    
Max Wind Speed 12 mph    
Max Gust Speed -    
Visibility 9.6 miles    
Events      
Averages and records for this station are not official NWS values.
T = Trace of Precipitation, MM = Missing Value Source: Averaged Metar Reports

Daily Weather History Graph

Daily Weather History Graph

Search for Another Location

Airport:

Trip Planner

Search our weather history database for the weather conditions in past years. The results will help you decide how hot, cold, wet, or windy it might be!

Date:

Astronomy

Oct. 20, 2012 Rise Set
Actual Time 7:28 AM MDT 6:48 PM MDT
Civil Twilight 7:04 AM MDT 7:12 PM MDT
Nautical Twilight 6:37 AM MDT 7:40 PM MDT
Astronomical Twilight 6:09 AM MDT 8:07 PM MDT
Moon 12:54 PM MDT (10/20) 11:50 PM MDT (10/20)
Length of Visible Light 12h 07m
Length of Day
11h 19m
Waxing Crescent, 35% of the Moon is Illuminated
Oct 20
Waxing Crescent
Oct 21
First Quarter
Oct 29
Full
Nov 6
Last Quarter
Nov 13
New

Hourly Weather History & Observations

Time (MDT) Temp. Heat Index Dew Point Humidity Pressure Visibility Wind Dir Wind Speed Gust Speed Precip Events Conditions
12:41 AM 78.8 °F - 64.4 °F 61% 29.83 in 10.0 mi Calm Calm - N/A   Scattered Clouds
1:42 AM 75.2 °F - 64.4 °F 69% 29.83 in 10.0 mi Calm Calm - N/A   Scattered Clouds
2:43 AM 73.4 °F - 64.4 °F 73% 29.82 in 10.0 mi Calm Calm - N/A   Scattered Clouds
4:41 AM 69.8 °F - 64.4 °F 83% 29.82 in 10.0 mi Calm Calm - N/A   Scattered Clouds
6:15 AM 71.6 °F - 62.6 °F 73% 29.82 in 10.0 mi Calm Calm - N/A   Scattered Clouds
6:46 AM 69.8 °F - 64.4 °F 83% 29.84 in 10.0 mi Calm Calm - N/A   Partly Cloudy
7:41 AM 69.8 °F - 64.4 °F 83% 29.85 in 10.0 mi Calm Calm - N/A   Clear
8:44 AM 77.0 °F - 66.2 °F 69% 29.85 in 10.0 mi East 6.9 mph - N/A   Clear
8:45 AM 72 °F - 56 °F 48% 29.85 in 7 mi SW 2.2 mph - -  
9:47 AM 80.6 °F 82.3 °F 64.4 °F 58% 29.88 in 10.0 mi SE 6.9 mph - N/A   Clear
10:44 AM 82.4 °F 83.9 °F 64.4 °F 54% 29.89 in 10.0 mi East 4.6 mph - N/A   Clear
11:30 AM 83 °F - 64 °F 43% 29.85 in 7 mi SE 2.2 mph - -  
11:41 AM 86.0 °F 86.6 °F 62.6 °F 45% 29.84 in 10.0 mi Calm Calm - N/A   Clear
12:41 PM 89.6 °F 89.5 °F 60.8 °F 38% 29.86 in 10.0 mi SSW 6.9 mph - N/A   Clear
1:47 PM 89.6 °F 89.5 °F 60.8 °F 38% 29.86 in 10.0 mi Calm Calm - N/A   Clear
2:43 PM 95.0 °F 92.7 °F 53.6 °F 25% 29.75 in 10.0 mi South 11.5 mph - N/A   Clear
3:43 PM 95.0 °F - 51.8 °F 23% 29.80 in 10.0 mi SSW 9.2 mph - N/A   Clear
4:40 PM 95.0 °F - 50.0 °F 22% 29.79 in 10.0 mi South 4.6 mph - N/A   Clear
5:45 PM 93.2 °F - 48.2 °F 21% 29.74 in 10.0 mi South 6.9 mph - N/A   Clear
6:43 PM 89.6 °F 87.3 °F 53.6 °F 29% 29.79 in 10.0 mi SW 11.5 mph - N/A   Clear
7:40 PM 86.0 °F - 51.8 °F 31% 29.80 in 10.0 mi SSW 8.1 mph - N/A   Clear
8:43 PM 82.4 °F - 48.2 °F 30% 29.77 in 10.0 mi SSW 5.8 mph - N/A   Clear
9:42 PM 80.6 °F - 46.4 °F 30% 29.84 in 10.0 mi Calm Calm - N/A   Clear
10:58 PM 77.0 °F - 48.2 °F 36% 29.85 in 8.0 mi Calm Calm - N/A   Clear
11:40 PM 73.4 °F - 50.0 °F 44% 29.79 in 8.0 mi Calm Calm - N/A   Clear